User: anonymous   Login
Location: Igon
(43.1667°N, 0.2333°W)
Time: 11:20:36
(UTC+00:00)
Language:

PAYLOAD B - Orbit

View from above orbital plane
View from above orbital plane
View from above satellite
View from above satellite

Ground track
Ground track

The orbit data is extracted from the following two-line orbital elements,

1 27431U 02024B   21063.98620833 -.00000100  00000-0 -30689-4 0  9999
2 27431  99.1497  72.2384 0014533 251.1529 108.8065 14.09716259967559
Epoch (UTC): 04 March 2021 23:40:08
Eccentricity: 0.0014533
inclination: 99.1497°
perigee height: 850 km
apogee height: 871 km
right ascension of ascending node: 72.2384°
argument of perigee: 251.1529°
revolutions per day: 14.09716259
mean anomaly at epoch: 108.8065°
orbit number at epoch: 96755

The dashed part of the orbit path shows where the satellite is in the earth's shadow,  

DLR